Location: Clifton Park
(41.4873°N, 81.8024°W)
Time: 09:13:48
(UTC+00:00)

STARLINK-1015 - Pass Details

Date: 21 January 2020
Orbit: 369 x 379 km, 53.0° (Epoch: 17 February)

Event Time Altitude Azimuth Distance (km) Brightness Sun altitude
Exits shadow 10:20:49 - 144° (SE) 1,625 6.5 -27.4°
Enters shadow 11:23:28 -62° 231° (SW) 11,651 10.3 -15.8°
Maximum altitude 11:56:31 79° 142° (SE) 349 2.7 -9.8°
